Time,TemperatureF,DewpointF,PressureIn,WindDirection,WindDirectionDegrees,WindSpeedMPH,WindSpeedGustMPH,Humidity,HourlyPrecipIn,Conditions,Clouds,dailyrainin,SolarRadiationWatts/m^2,SoftwareType,DateUTC
2013-08-07 00:11:00,67.3,61.0,29.99,ESE,106,9.0,-999.0,81,-99.99,,,0.00,0,weatherlink.com 1.10,2013-08-07 04:11:00,
2013-08-07 00:26:00,67.5,61.0,29.99,ESE,108,5.0,-999.0,80,-99.99,,,0.00,0,weatherlink.com 1.10,2013-08-07 04:26:00,
2013-08-07 00:41:00,67.8,61.0,29.98,SE,126,13.0,-999.0,79,-99.99,,,0.00,0,weatherlink.com 1.10,2013-08-07 04:41:00,
2013-08-07 00:56:00,68.1,61.0,29.98,SE,124,9.0,-999.0,77,-99.99,,,0.00,0,weatherlink.com 1.10,2013-08-07 04:56:00,
2013-08-07 01:11:00,68.2,61.0,29.98,SE,127,8.0,-999.0,77,-99.99,,,0.00,0,weatherlink.com 1.10,2013-08-07 05:11:00,
2013-08-07 01:26:00,68.4,61.0,29.99,ESE,110,13.0,-999.0,76,-99.99,,,0.00,0,weatherlink.com 1.10,2013-08-07 05:26:00,
2013-08-07 01:41:00,68.5,61.0,29.99,ESE,121,7.0,-999.0,76,-99.99,,,0.00,0,weatherlink.com 1.10,2013-08-07 05:41:00,
2013-08-07 01:56:00,67.7,61.0,29.99,East,90,9.0,-999.0,79,-99.99,,,0.00,0,weatherlink.com 1.10,2013-08-07 05:56:00,
2013-08-07 02:12:00,67.1,61.0,29.99,ESE,120,2.0,-999.0,80,-99.99,,,0.00,0,weatherlink.com 1.10,2013-08-07 06:12:00,
2013-08-07 02:27:00,66.6,60.0,29.99,ESE,112,7.0,-999.0,80,-99.99,,,0.00,0,weatherlink.com 1.10,2013-08-07 06:27:00,
2013-08-07 02:42:00,66.4,60.0,29.99,ESE,106,6.0,-999.0,81,-99.99,,,0.00,0,weatherlink.com 1.10,2013-08-07 06:42:00,
2013-08-07 03:28:00,65.7,60.0,29.99,ESE,103,5.0,-999.0,83,-99.99,,,0.00,0,weatherlink.com 1.10,2013-08-07 07:28:00,
2013-08-07 03:42:00,65.5,60.0,29.99,ESE,114,1.0,-999.0,83,-99.99,,,0.00,0,weatherlink.com 1.10,2013-08-07 07:42:00,
2013-08-07 03:57:00,65.4,61.0,29.98,ESE,112,4.0,-999.0,84,-99.99,,,0.00,0,weatherlink.com 1.10,2013-08-07 07:57:00,
2013-08-07 04:12:00,65.3,61.0,29.99,ESE,111,2.0,-999.0,85,-99.99,,,0.00,0,weatherlink.com 1.10,2013-08-07 08:12:00,
2013-08-07 04:27:00,65.1,61.0,29.98,ESE,104,5.0,-999.0,85,-99.99,,,0.00,0,weatherlink.com 1.10,2013-08-07 08:27:00,
2013-08-07 04:42:00,65.1,61.0,29.98,ESE,109,6.0,-999.0,85,-99.99,,,0.00,0,weatherlink.com 1.10,2013-08-07 08:42:00,
2013-08-07 04:57:00,65.0,60.0,29.98,East,99,4.0,-999.0,85,-99.99,,,0.00,0,weatherlink.com 1.10,2013-08-07 08:57:00,
2013-08-07 05:12:00,64.7,61.0,29.98,ESE,123,8.0,-999.0,86,-99.99,,,0.00,0,weatherlink.com 1.10,2013-08-07 09:12:00,
2013-08-07 05:27:00,64.4,60.0,29.98,East,86,8.0,-999.0,86,-99.99,,,0.00,0,weatherlink.com 1.10,2013-08-07 09:27:00,
2013-08-07 05:42:00,64.5,60.0,29.98,ESE,121,9.0,-999.0,86,-99.99,,,0.00,0,weatherlink.com 1.10,2013-08-07 09:42:00,
2013-08-07 05:57:00,64.5,60.0,29.98,SE,127,8.0,-999.0,86,-99.99,,,0.00,0,weatherlink.com 1.10,2013-08-07 09:57:00,
2013-08-07 06:12:00,64.7,61.0,29.98,East,98,5.0,-999.0,86,-99.99,,,0.00,0,weatherlink.com 1.10,2013-08-07 10:12:00,
2013-08-07 06:27:00,64.8,61.0,29.98,ESE,113,7.0,-999.0,86,-99.99,,,0.00,12,weatherlink.com 1.10,2013-08-07 10:27:00,
2013-08-07 06:42:00,64.9,61.0,29.98,East,92,4.0,-999.0,87,-99.99,,,0.00,42,weatherlink.com 1.10,2013-08-07 10:42:00,
2013-08-07 06:57:00,65.1,61.0,29.98,ESE,120,3.0,-999.0,86,-99.99,,,0.00,39,weatherlink.com 1.10,2013-08-07 10:57:00,
2013-08-07 07:12:00,65.4,61.0,29.99,ESE,111,5.0,-999.0,86,-99.99,,,0.00,37,weatherlink.com 1.10,2013-08-07 11:12:00,
2013-08-07 07:27:00,65.6,61.0,29.98,ESE,113,3.0,-999.0,85,-99.99,,,0.00,81,weatherlink.com 1.10,2013-08-07 11:27:00,
2013-08-07 07:42:00,66.9,62.0,29.98,East,99,9.0,-999.0,83,-99.99,,,0.00,190,weatherlink.com 1.10,2013-08-07 11:42:00,
2013-08-07 07:57:00,68.0,62.0,29.98,East,98,6.0,-999.0,81,-99.99,,,0.00,230,weatherlink.com 1.10,2013-08-07 11:57:00,
2013-08-07 08:12:00,69.0,63.0,29.98,ENE,77,5.0,-999.0,80,-99.99,,,0.00,274,weatherlink.com 1.10,2013-08-07 12:12:00,
2013-08-07 08:27:00,69.4,63.0,29.98,ESE,103,7.0,-999.0,80,-99.99,,,0.00,318,weatherlink.com 1.10,2013-08-07 12:27:00,
2013-08-07 08:42:00,69.6,63.0,29.97,ESE,109,8.0,-999.0,79,-99.99,,,0.00,362,weatherlink.com 1.10,2013-08-07 12:42:00,
2013-08-07 08:57:00,70.0,63.0,29.97,ESE,105,8.0,-999.0,79,-99.99,,,0.00,403,weatherlink.com 1.10,2013-08-07 12:57:00,
2013-08-07 09:13:00,70.4,63.0,29.97,ESE,119,13.0,-999.0,78,-99.99,,,0.00,434,weatherlink.com 1.10,2013-08-07 13:13:00,
2013-08-07 09:28:00,70.7,63.0,29.96,East,92,13.0,-999.0,77,-99.99,,,0.00,499,weatherlink.com 1.10,2013-08-07 13:28:00,
2013-08-07 09:43:00,71.7,64.0,29.95,ESE,115,12.0,-999.0,77,-99.99,,,0.00,540,weatherlink.com 1.10,2013-08-07 13:43:00,
2013-08-07 09:58:00,71.7,64.0,29.95,SE,131,16.0,-999.0,77,-99.99,,,0.00,577,weatherlink.com 1.10,2013-08-07 13:58:00,
2013-08-07 10:13:00,73.0,65.0,29.96,SE,131,16.0,-999.0,75,-99.99,,,0.00,367,weatherlink.com 1.10,2013-08-07 14:13:00,
2013-08-07 10:28:00,72.9,65.0,29.96,East,101,14.0,-999.0,76,-99.99,,,0.00,362,weatherlink.com 1.10,2013-08-07 14:28:00,
2013-08-07 10:43:00,73.0,65.0,29.96,East,101,18.0,-999.0,76,-99.99,,,0.00,308,weatherlink.com 1.10,2013-08-07 14:43:00,
2013-08-07 10:58:00,73.3,65.0,29.96,SE,138,12.0,-999.0,74,-99.99,,,0.00,283,weatherlink.com 1.10,2013-08-07 14:58:00,
2013-08-07 11:13:00,73.4,65.0,29.96,SE,144,12.0,-999.0,74,-99.99,,,0.00,360,weatherlink.com 1.10,2013-08-07 15:13:00,
2013-08-07 11:28:00,73.6,64.0,29.96,ESE,109,14.0,-999.0,73,-99.99,,,0.00,388,weatherlink.com 1.10,2013-08-07 15:28:00,
2013-08-07 11:43:00,73.7,65.0,29.96,SSE,153,13.0,-999.0,73,-99.99,,,0.00,425,weatherlink.com 1.10,2013-08-07 15:43:00,
2013-08-07 11:58:00,74.3,65.0,29.96,SSE,150,11.0,-999.0,73,-99.99,,,0.00,589,weatherlink.com 1.10,2013-08-07 15:58:00,
2013-08-07 12:13:00,74.9,65.0,29.96,SE,132,8.0,-999.0,72,-99.99,,,0.00,598,weatherlink.com 1.10,2013-08-07 16:13:00,
2013-08-07 12:28:00,75.8,65.0,29.95,SE,130,16.0,-999.0,70,-99.99,,,0.00,944,weatherlink.com 1.10,2013-08-07 16:28:00,
2013-08-07 12:43:00,76.1,66.0,29.95,SSE,148,12.0,-999.0,71,-99.99,,,0.00,647,weatherlink.com 1.10,2013-08-07 16:43:00,
2013-08-07 12:58:00,76.7,67.0,29.95,SE,139,14.0,-999.0,71,-99.99,,,0.00,858,weatherlink.com 1.10,2013-08-07 16:58:00,
2013-08-07 13:13:00,76.5,66.0,29.94,ESE,117,19.0,-999.0,71,-99.99,,,0.00,812,weatherlink.com 1.10,2013-08-07 17:13:00,
2013-08-07 13:28:00,75.8,67.0,29.93,ESE,106,9.0,-999.0,73,-99.99,,,0.00,631,weatherlink.com 1.10,2013-08-07 17:28:00,
2013-08-07 13:43:00,76.4,67.0,29.93,ESE,123,14.0,-999.0,72,-99.99,,,0.00,680,weatherlink.com 1.10,2013-08-07 17:43:00,
2013-08-07 13:58:00,76.3,67.0,29.93,SE,146,14.0,-999.0,73,-99.99,,,0.00,895,weatherlink.com 1.10,2013-08-07 17:58:00,
2013-08-07 14:13:00,76.8,67.0,29.93,SE,135,18.0,-999.0,72,-99.99,,,0.00,392,weatherlink.com 1.10,2013-08-07 18:13:00,
2013-08-07 14:28:00,76.3,67.0,29.93,ESE,114,8.0,-999.0,73,-99.99,,,0.00,471,weatherlink.com 1.10,2013-08-07 18:28:00,
2013-08-07 14:43:00,76.2,67.0,29.93,SE,129,20.0,-999.0,73,-99.99,,,0.00,457,weatherlink.com 1.10,2013-08-07 18:43:00,
2013-08-07 14:58:00,76.2,67.0,29.92,ESE,113,15.0,-999.0,74,-99.99,,,0.00,367,weatherlink.com 1.10,2013-08-07 18:58:00,
2013-08-07 15:13:00,75.6,67.0,29.92,ESE,117,12.0,-999.0,75,-99.99,,,0.00,327,weatherlink.com 1.10,2013-08-07 19:13:00,
2013-08-07 15:28:00,75.5,67.0,29.92,ESE,110,11.0,-999.0,76,-99.99,,,0.00,325,weatherlink.com 1.10,2013-08-07 19:28:00,
2013-08-07 15:43:00,75.8,67.0,29.91,SE,146,12.0,-999.0,75,-99.99,,,0.00,487,weatherlink.com 1.10,2013-08-07 19:43:00,
2013-08-07 15:58:00,76.4,68.0,29.91,East,87,13.0,-999.0,74,-99.99,,,0.00,374,weatherlink.com 1.10,2013-08-07 19:58:00,
2013-08-07 16:13:00,76.5,67.0,29.90,SE,126,16.0,-999.0,73,-99.99,,,0.00,220,weatherlink.com 1.10,2013-08-07 20:13:00,
2013-08-07 16:28:00,76.6,68.0,29.89,SE,130,16.0,-999.0,74,-99.99,,,0.00,425,weatherlink.com 1.10,2013-08-07 20:28:00,
2013-08-07 16:43:00,76.6,68.0,29.89,ESE,105,9.0,-999.0,74,-99.99,,,0.00,232,weatherlink.com 1.10,2013-08-07 20:43:00,
2013-08-07 16:58:00,76.0,68.0,29.90,SE,131,14.0,-999.0,75,-99.99,,,0.00,234,weatherlink.com 1.10,2013-08-07 20:58:00,
2013-08-07 17:13:00,75.9,67.0,29.89,ESE,106,10.0,-999.0,75,-99.99,,,0.00,204,weatherlink.com 1.10,2013-08-07 21:13:00,
2013-08-07 17:28:00,75.4,68.0,29.89,SE,136,12.0,-999.0,77,-99.99,,,0.00,403,weatherlink.com 1.10,2013-08-07 21:28:00,
2013-08-07 17:43:00,75.4,68.0,29.89,SE,128,11.0,-999.0,77,-99.99,,,0.00,188,weatherlink.com 1.10,2013-08-07 21:43:00,
2013-08-07 17:58:00,75.7,68.0,29.88,SE,128,9.0,-999.0,76,-99.99,,,0.00,274,weatherlink.com 1.10,2013-08-07 21:58:00,
2013-08-07 18:13:00,75.1,67.0,29.88,SE,136,16.0,-999.0,77,-99.99,,,0.00,209,weatherlink.com 1.10,2013-08-07 22:13:00,
2013-08-07 18:28:00,75.1,68.0,29.88,SE,127,10.0,-999.0,78,-99.99,,,0.00,169,weatherlink.com 1.10,2013-08-07 22:28:00,
2013-08-07 18:43:00,74.7,67.0,29.89,ESE,113,11.0,-999.0,78,-99.99,,,0.00,100,weatherlink.com 1.10,2013-08-07 22:43:00,
2013-08-07 18:59:00,74.2,67.0,29.88,ESE,111,8.0,-999.0,79,-99.99,,,0.00,67,weatherlink.com 1.10,2013-08-07 22:59:00,
2013-08-07 19:14:00,73.9,67.0,29.88,SSE,155,14.0,-999.0,80,-99.99,,,0.00,49,weatherlink.com 1.10,2013-08-07 23:14:00,
2013-08-07 19:29:00,73.7,67.0,29.87,SE,134,12.0,-999.0,80,-99.99,,,0.00,88,weatherlink.com 1.10,2013-08-07 23:29:00,
2013-08-07 19:44:00,73.7,67.0,29.88,SE,134,8.0,-999.0,80,-99.99,,,0.00,67,weatherlink.com 1.10,2013-08-07 23:44:00,
2013-08-07 19:59:00,73.7,67.0,29.88,ESE,121,9.0,-999.0,80,-99.99,,,0.00,28,weatherlink.com 1.10,2013-08-07 23:59:00,
2013-08-07 20:14:00,73.4,67.0,29.87,ESE,109,19.0,-999.0,80,-99.99,,,0.00,11,weatherlink.com 1.10,2013-08-08 00:14:00,
2013-08-07 20:29:00,73.1,67.0,29.87,SE,130,10.0,-999.0,81,-99.99,,,0.00,0,weatherlink.com 1.10,2013-08-08 00:29:00,
2013-08-07 20:44:00,72.8,67.0,29.87,East,98,11.0,-999.0,82,-99.99,,,0.00,0,weatherlink.com 1.10,2013-08-08 00:44:00,
2013-08-07 20:59:00,72.6,67.0,29.88,ESE,114,12.0,-999.0,82,-99.99,,,0.00,0,weatherlink.com 1.10,2013-08-08 00:59:00,
2013-08-07 21:14:00,72.4,67.0,29.88,SE,130,10.0,-999.0,83,-99.99,,,0.00,0,weatherlink.com 1.10,2013-08-08 01:14:00,
2013-08-07 21:29:00,72.1,67.0,29.88,ESE,123,10.0,-999.0,83,-99.99,,,0.00,0,weatherlink.com 1.10,2013-08-08 01:29:00,
2013-08-07 21:44:00,72.1,67.0,29.88,East,98,10.0,-999.0,84,-99.99,,,0.00,0,weatherlink.com 1.10,2013-08-08 01:44:00,
2013-08-07 21:59:00,71.8,67.0,29.88,SE,128,9.0,-999.0,84,-99.99,,,0.00,0,weatherlink.com 1.10,2013-08-08 01:59:00,
2013-08-07 22:14:00,71.6,67.0,29.88,SE,138,12.0,-999.0,85,-99.99,,,0.00,0,weatherlink.com 1.10,2013-08-08 02:14:00,
2013-08-07 22:29:00,71.5,67.0,29.89,ESE,115,9.0,-999.0,85,-99.99,,,0.00,0,weatherlink.com 1.10,2013-08-08 02:29:00,
2013-08-07 22:44:00,71.4,67.0,29.89,SE,146,7.0,-999.0,86,-99.99,,,0.00,0,weatherlink.com 1.10,2013-08-08 02:44:00,
2013-08-07 22:59:00,71.2,67.0,29.90,SSE,150,6.0,-999.0,86,-99.99,,,0.00,0,weatherlink.com 1.10,2013-08-08 02:59:00,
2013-08-07 23:14:00,70.9,67.0,29.90,SE,144,7.0,-999.0,86,-99.99,,,0.00,0,weatherlink.com 1.10,2013-08-08 03:14:00,
2013-08-07 23:29:00,70.7,66.0,29.89,SE,126,6.0,-999.0,86,-99.99,,,0.00,0,weatherlink.com 1.10,2013-08-08 03:29:00,
2013-08-07 23:44:00,70.4,66.0,29.89,SE,146,7.0,-999.0,87,-99.99,,,0.00,0,weatherlink.com 1.10,2013-08-08 03:44:00,
2013-08-07 23:59:00,70.3,66.0,29.88,SE,128,5.0,-999.0,87,-99.99,,,0.00,0,weatherlink.com 1.10,2013-08-08 03:59:00,